This is the latest recevied weather packets stored in our database for station/object JH5HTX-13. If no packets are shown the sender has not sent any weather packets the latest 1 day(s).
| Time | Temp. | Humidity | Pressure | Rain* | Wind** | Luminosity | Snow |
|---|---|---|---|---|---|---|---|
| 1778016070 | 11.67° C | 86% | 1020.3 hPa | 0 mm | 0 m/s | - | - |
| 1778015169 | 11.67° C | 85% | 1020.2 hPa | 0 mm | 0 m/s | - | - |
| 1778014269 | 11.11° C | 85% | 1020.3 hPa | 0 mm | 0 m/s | - | - |
| 1778013369 | 11.11° C | 85% | 1020.2 hPa | 0 mm | 0 m/s | - | - |
| 1778012469 | 11.11° C | 85% | 1019.9 hPa | 0 mm | 0 m/s | - | - |
| 1778011569 | 10.56° C | 85% | 1019.7 hPa | 0 mm | 0 m/s | - | - |
| 1778010669 | 11.11° C | 84% | 1019.8 hPa | 0 mm | 0 m/s | - | - |
| 1778009769 | 10.56° C | 84% | 1019.5 hPa | 0 mm | 0 m/s | - | - |
| 1778008869 | 10.56° C | 84% | 1019.5 hPa | 0 mm | 0 m/s | - | - |
| 1778007969 | 11.11° C | 83% | 1019.5 hPa | 0 mm | 0 m/s | - | - |
| 1778007069 | 11.11° C | 82% | 1019.8 hPa | 0 mm | 0 m/s | - | - |
| 1778006168 | 11.11° C | 81% | 1019.8 hPa | 0 mm | 0 m/s | - | - |
| 1778005268 | 11.11° C | 81% | 1019.8 hPa | 0 mm | 0 m/s | - | - |
| 1778004368 | 11.67° C | 80% | 1019.8 hPa | 0 mm | 0 m/s | - | - |
| 1778003468 | 11.67° C | 79% | 1019.8 hPa | 0 mm | 0 m/s | - | - |
| 1778002568 | 11.67° C | 79% | 1019.8 hPa | 0 mm | 0 m/s | - | - |
| 1778001668 | 12.22° C | 78% | 1020 hPa | 0 mm | 0 m/s | - | - |
| 1778000768 | 12.22° C | 77% | 1019.8 hPa | 0 mm | 0 m/s | - | - |
| 1777999868 | 12.22° C | 77% | 1019.9 hPa | 0 mm | 0 m/s | - | - |
| 1777998968 | 12.22° C | 77% | 1019.9 hPa | 0 mm | 0 m/s | - | - |
| 1777998067 | 12.22° C | 76% | 1020 hPa | 0 mm | 0 m/s | - | - |
| 1777997167 | 12.78° C | 75% | 1020.1 hPa | 0 mm | 0 m/s | - | - |
| 1777996267 | 12.78° C | 74% | 1020.2 hPa | 0 mm | 0 m/s | - | - |
| 1777995367 | 12.78° C | 73% | 1020.1 hPa | 0 mm | 0 m/s | - | - |
| 1777994467 | 13.33° C | 72% | 1020.2 hPa | 0 mm | 0 m/s | - | - |
* Rain latest hour (hover to see other rain measurements)
** Current wind speed in m/s (hover to see current wind gust speed)